Location: ?
(35.4214°N, 139.3011°E)
Time: 22:09:18
(UTC+00:00)

Cosmos 158 Rocket - Pass Details

Date: 14 July 2020
Orbit: 698 x 794 km, 74.0° (Epoch: 10 August)

Event Time Altitude Azimuth Distance (km) Brightness Sun altitude
Exits shadow 11:18:29 - 186° (S) 2,635 6.5 -14.3°
Reaches altitude 10° 11:19:43 10° 184° (S) 2,149 6.0 -14.5°
Maximum altitude 11:24:29 62° 105° (ESE) 787 3.8 -15.3°
Drops below altitude 10° 11:29:19 10° 25° (NNE) 2,182 6.6 -16.0°
Sets 11:31:41 0° 22° (NNE) 3,115 7.4 -16.3°
